When you browse on this site, cookies collect data to enhance your experience and personalize the content and advertising you see.
Visit our Privacy Policy to learn more. By continuing to use the site, you agree to this use of cookies and data.
  • In Belgium
  • List of Countries
  • For 7 days
  • Water Temperature
  • Satellite Maps
  • Weather Map
  • Weather Widgets
  • user-avatar
    Login

    Hourly Weather Nam Dinh

    Today, 18 November, Sunday

    Time Temperature Precipitation Wind Pressure Humidity
    00:00 +27°C° 0 mm 2 mps 759 mmHg 90%
    01:00 +27°C° 0 mm 2 mps 759 mmHg 91%
    02:00 +27°C° 0 mm 2 mps 759 mmHg 92%
    03:00 +27°C° 0 mm 2 mps 759 mmHg 92%
    04:00 +26°C° 0 mm 2 mps 759 mmHg 92%
    05:00 +27°C° 0.1 mm 2 mps 759 mmHg 91%
    06:00 +27°C° 0.1 mm 2 mps 760 mmHg 90%
    07:00 +27°C° 0.1 mm 2 mps 760 mmHg 88%
    08:00 +28°C° 0.1 mm 2 mps 760 mmHg 82%
    09:00 +29°C° 0.1 mm 2 mps 761 mmHg 76%
    10:00 +30°C° 0.1 mm 3 mps 761 mmHg 69%
    11:00 +31°C° 0 mm 3 mps 761 mmHg 67%
    12:00 +31°C° 0 mm 3 mps 760 mmHg 65%
    13:00 +33°C° 0 mm 3 mps 759 mmHg 62%
    14:00 +33°C° 0 mm 4 mps 759 mmHg 65%
    15:00 +32°C° 0 mm 4 mps 759 mmHg 67%
    16:00 +32°C° 0 mm 4 mps 758 mmHg 69%
    17:00 +30°C° 0 mm 4 mps 759 mmHg 74%
    18:00 +29°C° 0 mm 3 mps 759 mmHg 79%
    19:00 +28°C° 0 mm 3 mps 759 mmHg 84%
    20:00 +28°C° 0 mm 3 mps 760 mmHg 85%
    21:00 +28°C° 0 mm 3 mps 760 mmHg 86%
    22:00 +27°C° 0 mm 2 mps 760 mmHg 87%
    23:00 +27°C° 0.1 mm 2 mps 760 mmHg 87%

    Tomorrow, 19 November, Monday

    Time Temperature Precipitation Wind Pressure Humidity
    00:00 +27°C° 0.1 mm 3 mps 760 mmHg 87%
    01:00 +27°C° 0.1 mm 3 mps 760 mmHg 87%
    02:00 +27°C° 0.2 mm 3 mps 760 mmHg 87%
    03:00 +27°C° 0.2 mm 4 mps 760 mmHg 87%
    04:00 +27°C° 0.2 mm 4 mps 760 mmHg 88%
    05:00 +26°C° 0.3 mm 4 mps 760 mmHg 88%
    06:00 +26°C° 0.3 mm 4 mps 761 mmHg 87%
    07:00 +26°C° 0.3 mm 4 mps 761 mmHg 87%
    08:00 +27°C° 0.1 mm 4 mps 762 mmHg 85%
    09:00 +27°C° 0.1 mm 4 mps 762 mmHg 82%
    10:00 +28°C° 0.1 mm 4 mps 763 mmHg 79%
    11:00 +28°C° 0.4 mm 4 mps 762 mmHg 77%
    12:00 +29°C° 0.4 mm 4 mps 761 mmHg 75%
    13:00 +29°C° 0.4 mm 5 mps 760 mmHg 73%
    14:00 +29°C° 0.2 mm 5 mps 760 mmHg 75%
    15:00 +29°C° 0.2 mm 5 mps 760 mmHg 76%
    16:00 +29°C° 0.2 mm 5 mps 759 mmHg 77%
    17:00 +28°C° 0 mm 5 mps 760 mmHg 80%
    18:00 +27°C° 0 mm 4 mps 760 mmHg 83%
    19:00 +27°C° 0 mm 4 mps 761 mmHg 85%
    20:00 +27°C° 0.1 mm 4 mps 761 mmHg 86%
    21:00 +27°C° 0.1 mm 3 mps 761 mmHg 87%
    22:00 +27°C° 0.1 mm 3 mps 761 mmHg 87%
    23:00 +26°C° 0.2 mm 3 mps 761 mmHg 88%

    Day after tomorrow, 20 November, Tuesday

    Time Temperature Precipitation Wind Pressure Humidity
    00:00 +26°C° 0.2 mm 2 mps 761 mmHg 89%
    01:00 +26°C° 0.2 mm 2 mps 760 mmHg 91%
    02:00 +26°C° 0.1 mm 2 mps 760 mmHg 91%
    03:00 +26°C° 0.1 mm 1 mps 760 mmHg 92%
    04:00 +26°C° 0.1 mm 1 mps 759 mmHg 92%
    05:00 +26°C° 0.1 mm 1 mps 760 mmHg 92%
    06:00 +26°C° 0.1 mm 1 mps 760 mmHg 91%
    07:00 +26°C° 0.1 mm 1 mps 760 mmHg 90%
    08:00 +27°C° 0.3 mm 2 mps 761 mmHg 84%
    09:00 +29°C° 0.3 mm 2 mps 761 mmHg 78%
    10:00 +30°C° 0.3 mm 3 mps 762 mmHg 71%
    11:00 +30°C° 0.3 mm 3 mps 761 mmHg 69%
    12:00 +32°C° 0.3 mm 4 mps 760 mmHg 66%
    13:00 +33°C° 0.3 mm 4 mps 759 mmHg 64%
    14:00 +32°C° 0 mm 4 mps 758 mmHg 65%
    15:00 +32°C° 0 mm 4 mps 758 mmHg 67%
    16:00 +30°C° 0 mm 4 mps 757 mmHg 69%
    17:00 +30°C° 0 mm 4 mps 758 mmHg 74%
    18:00 +29°C° 0 mm 4 mps 758 mmHg 79%
    19:00 +28°C° 0 mm 4 mps 759 mmHg 83%
    20:00 +28°C° 0 mm 3 mps 759 mmHg 85%
    21:00 +27°C° 0 mm 3 mps 759 mmHg 87%
    22:00 +27°C° 0 mm 3 mps 760 mmHg 88%
    23:00 +27°C° 0.1 mm 3 mps 760 mmHg 89%

    21 November, Wednesday

    Time Temperature Precipitation Wind Pressure Humidity
    00:00 +27°C° 0.1 mm 3 mps 759 mmHg 89%
    01:00 +27°C° 0.1 mm 3 mps 759 mmHg 89%
    02:00 +27°C° 0.1 mm 2 mps 759 mmHg 89%
    03:00 +27°C° 0.1 mm 2 mps 759 mmHg 89%
    04:00 +27°C° 0.1 mm 2 mps 758 mmHg 89%
    05:00 +27°C° 0.2 mm 2 mps 759 mmHg 88%
    06:00 +27°C° 0.2 mm 2 mps 759 mmHg 88%
    07:00 +27°C° 0.2 mm 2 mps 760 mmHg 87%
    08:00 +28°C° 0.6 mm 3 mps 760 mmHg 81%
    09:00 +29°C° 0.6 mm 3 mps 760 mmHg 75%
    10:00 +30°C° 0.6 mm 3 mps 761 mmHg 69%
    11:00 +31°C° 1.1 mm 3 mps 760 mmHg 67%
    12:00 +31°C° 1.1 mm 3 mps 759 mmHg 65%
    13:00 +33°C° 1.1 mm 3 mps 758 mmHg 63%
    14:00 +31°C° 0.2 mm 3 mps 758 mmHg 65%
    15:00 +31°C° 0.2 mm 3 mps 758 mmHg 66%
    16:00 +31°C° 0.2 mm 3 mps 758 mmHg 68%
    17:00 +30°C° 0.4 mm 3 mps 759 mmHg 73%
    18:00 +29°C° 0.4 mm 3 mps 760 mmHg 78%
    19:00 +28°C° 0.4 mm 3 mps 760 mmHg 83%
    20:00 +27°C° 1.3 mm 3 mps 761 mmHg 82%
    21:00 +27°C° 1.3 mm 4 mps 762 mmHg 81%
    22:00 +26°C° 1.3 mm 4 mps 762 mmHg 80%
    23:00 +25°C° 0.7 mm 5 mps 762 mmHg 80%

    22 November, Thursday

    Time Temperature Precipitation Wind Pressure Humidity
    00:00 +23°C° 0.7 mm 5 mps 762 mmHg 81%
    01:00 +22°C° 0.7 mm 6 mps 762 mmHg 81%
    02:00 +22°C° 0.4 mm 6 mps 762 mmHg 80%
    03:00 +21°C° 0.4 mm 5 mps 762 mmHg 80%
    04:00 +21°C° 0.4 mm 5 mps 762 mmHg 80%
    05:00 +20°C° 0.2 mm 5 mps 763 mmHg 80%
    06:00 +20°C° 0.2 mm 5 mps 763 mmHg 79%
    07:00 +20°C° 0.2 mm 5 mps 764 mmHg 79%
    08:00 +20°C° 0.1 mm 5 mps 764 mmHg 78%
    09:00 +20°C° 0.1 mm 5 mps 765 mmHg 77%
    10:00 +20°C° 0.1 mm 5 mps 765 mmHg 75%
    11:00 +20°C° 0 mm 5 mps 764 mmHg 76%
    12:00 +20°C° 0 mm 4 mps 764 mmHg 76%
    13:00 +20°C° 0 mm 4 mps 763 mmHg 76%
    14:00 +20°C° 0 mm 4 mps 763 mmHg 76%
    15:00 +20°C° 0 mm 3 mps 762 mmHg 76%
    16:00 +20°C° 0 mm 3 mps 762 mmHg 76%
    17:00 +20°C° 0 mm 2 mps 763 mmHg 78%
    18:00 +20°C° 0 mm 2 mps 763 mmHg 79%
    19:00 +20°C° 0 mm 1 mps 763 mmHg 81%
    20:00 +20°C° 0 mm 2 mps 764 mmHg 81%
    21:00 +20°C° 0 mm 2 mps 764 mmHg 81%
    22:00 +20°C° 0 mm 2 mps 764 mmHg 81%
    23:00 +20°C° 0 mm 2 mps 764 mmHg 81%

    23 November, Friday

    Time Temperature Precipitation Wind Pressure Humidity
    00:00 +20°C° 0 mm 3 mps 763 mmHg 81%
    01:00 +20°C° 0 mm 3 mps 763 mmHg 81%
    02:00 +20°C° 0 mm 3 mps 763 mmHg 81%
    03:00 +20°C° 0 mm 3 mps 763 mmHg 81%
    04:00 +20°C° 0 mm 3 mps 763 mmHg 80%
    05:00 +20°C° 0 mm 3 mps 763 mmHg 80%
    06:00 +20°C° 0 mm 3 mps 763 mmHg 80%
    07:00 +20°C° 0 mm 3 mps 764 mmHg 80%
    08:00 +21°C° 0 mm 3 mps 764 mmHg 77%
    09:00 +22°C° 0 mm 3 mps 764 mmHg 73%
    10:00 +24°C° 0 mm 3 mps 764 mmHg 70%
    11:00 +25°C° 0 mm 3 mps 763 mmHg 66%
    12:00 +26°C° 0 mm 2 mps 762 mmHg 62%
    13:00 +28°C° 0 mm 2 mps 761 mmHg 57%
    14:00 +28°C° 0 mm 2 mps 761 mmHg 58%
    15:00 +28°C° 0 mm 2 mps 761 mmHg 58%
    16:00 +28°C° 0 mm 2 mps 760 mmHg 58%
    17:00 +27°C° 0 mm 2 mps 761 mmHg 63%
    18:00 +26°C° 0 mm 2 mps 761 mmHg 67%
    19:00 +25°C° 0 mm 2 mps 761 mmHg 72%
    20:00 +25°C° 0 mm 2 mps 761 mmHg 74%
    21:00 +24°C° 0 mm 2 mps 762 mmHg 76%
    22:00 +24°C° 0 mm 1 mps 762 mmHg 77%
    23:00 +24°C° 0 mm 1 mps 761 mmHg 78%
    Show more